Location: Pasadena, ca
(34.1243°N, 118.1037°W)
Time: 12:36:44
(UTC-08:00)

SEEDS - Visible Passes

Search period start: 23 February 2018 00:00
Search period end: 05 March 2018 00:00
Orbit: 586 x 606 km, 97.5° (Epoch: 23 February)

Date Brightness Start Highest point End Pass type
(mag) Time Alt. Az. Time Alt. Az. Time Alt. Az.
23 Feb ? 18:08:51 10° SSE 18:12:55 59° ENE 18:17:01 10° N visible
24 Feb ? 05:57:48 10° ENE 05:59:47 13° E 06:01:45 10° ESE visible
24 Feb ? 18:18:45 10° SSE 18:22:54 80° ENE 18:27:03 10° N visible
25 Feb ? 18:28:45 10° S 18:32:52 76° W 18:37:02 10° NNW visible
26 Feb ? 18:38:49 10° S 18:42:52 55° W 18:46:57 10° NNW visible
27 Feb ? 18:48:58 10° S 18:52:52 41° W 18:56:49 10° NNW visible
28 Feb ? 18:59:14 10° SSW 19:02:54 30° W 19:06:35 10° NW visible
01 Mar ? 19:09:37 10° SSW 19:12:56 23° W 19:16:16 10° NW visible
02 Mar ? 19:20:11 10° SW 19:22:58 18° W 19:25:48 10° NW visible
03 Mar ? 19:31:02 10° WSW 19:33:02 13° W 19:35:03 10° WNW visible
